Location: Unspecified
(0.0000°N, 0.0000°E)
Time: 23:50:06
(UTC+00:00)

Vanguard 2 - Pass Details

Date: 05 October 2020
Orbit: 554 x 2937 km, 32.9° (Epoch: 28 October)

Event Time Altitude Azimuth Distance (km) Brightness Sun altitude
Rises 01:56:28 0° 264° (W) 6,629 - -57.7°
Reaches altitude 10° 02:02:30 10° 276° (W) 5,355 - -56.2°
Maximum altitude 02:13:36 24° 323° (NW) 3,566 - -53.4°
Drops below altitude 10° 02:21:48 10° 14° (NNE) 3,837 - -51.4°
Exits shadow 02:23:29 - 21° (NNE) 4,105 11.3 -51.0°
Sets 02:25:17 0° 28° (NNE) 4,455 11.6 -50.5°
